Погода в Уссурийске

Россия / Приморский край     43°47′50″N   131°57′06″E
темп.,
°C
ветер,
м/с
пор.,
м/с
влажн.,
%
обл.,
%
осадки,
мм/ч
давл.,
гПа
погр.,
м
30 июня, чт
чт3001:00+17ююв4898100 0.0 1007274
04:00+16ю51098100 1.1 1008402
07:00+16ю41096100 1.5 1010454
10:00+17ю51093100 1.6 1011578
13:00+18ю478999 0.0 1011530
16:00+20ю577867 0.1 1011617
19:00+18ююз587993 0.0 1011486
22:00+15ю4981100 0.0 1013317
1 июля, пт
пт101:00+15ю4985100 0.0 1013316
04:00+16ю4979100 0.0 1014458
07:00+15ю388794 0.0 1014346
10:00+18ю6977100 0.0 1014499
13:00+20ю687448 0.0 1014548
16:00+21ю7975100 0.0 1012565
19:00+18ю71384100 0.0 1012478
22:00+16ю5119678 0.6 1013335
2 июля, сб
сб201:00+16ю5109699 0.0 1012304
04:00+16ю51197100 0.0 1012301
07:00+17ю4896100 0.0 1012217
10:00+20ю5785100 0.0 1012339
13:00+25ю5673100 0.0 1010482
16:00+25ю577580 0.0 1008470
19:00+21ю5984100 0.0 1008285
22:00+19ююв4991100 0.1 1009222
3 июля, вс
вс301:00+18ю4898100 1.8 1009192
04:00+18ю369886 1.8 1008139
07:00+19ю3698100 0.1 1008137
10:00+20ю3696100 0.1 1008172
13:00+27ююз337478 0.0 1007664
16:00+29ю446799 1.1 1005813
19:00+25ю4785100 2.6 1005328
22:00+20ю3897100 6.4 1006182
4 июля, пн
пн401:00+19ююв489729 3.9 1006183
04:00+18ю36978 3.9 1006114
07:00+19ю24975 0.0 1006131
10:00+24ю3382100 0.0 1006353
13:00+29юз2268100 0.1 1005753
16:00+29ю5569100 0.1 1004914
19:00+24ююв51085100 0.1 1004384
22:00+20ю51096100 1.1 1006255